Time,TemperatureF,DewpointF,PressureIn,WindDirection,WindDirectionDegrees,WindSpeedMPH,WindSpeedGustMPH,Humidity,HourlyPrecipIn,Conditions,Clouds,dailyrainin,SoftwareType,DateUTC
2013-05-01 00:14:00,50.7,47.0,29.82,North,10,0.0,-999.0,88,-99.99,,,0.00,weatherlink.com 1.10,2013-05-01 04:14:00,
2013-05-01 00:29:00,50.7,47.0,29.83,North,11,0.0,-999.0,87,-99.99,,,0.00,weatherlink.com 1.10,2013-05-01 04:29:00,
2013-05-01 00:44:00,50.9,47.0,29.84,North,11,0.0,-999.0,87,-99.99,,,0.00,weatherlink.com 1.10,2013-05-01 04:44:00,
2013-05-01 00:59:00,50.6,48.0,29.90,North,11,1.0,-999.0,90,-99.99,,,0.00,weatherlink.com 1.10,2013-05-01 04:59:00,
2013-05-01 01:14:00,52.7,51.0,29.93,SSW,210,1.0,-999.0,92,-99.99,,,0.01,weatherlink.com 1.10,2013-05-01 05:14:00,
2013-05-01 01:29:00,53.6,51.0,29.96,SW,225,1.0,-999.0,90,-99.99,,,0.03,weatherlink.com 1.10,2013-05-01 05:29:00,
2013-05-01 01:44:00,53.1,50.0,29.96,SSW,205,0.0,-999.0,90,-99.99,,,0.08,weatherlink.com 1.10,2013-05-01 05:44:00,
2013-05-01 01:59:00,52.5,50.0,29.91,SSW,206,2.0,-999.0,91,-99.99,,,0.21,weatherlink.com 1.10,2013-05-01 05:59:00,
2013-05-01 02:14:00,51.9,50.0,29.91,SSW,206,1.0,-999.0,93,-99.99,,,0.22,weatherlink.com 1.10,2013-05-01 06:14:00,
2013-05-01 02:28:00,51.9,50.0,29.93,SSW,206,1.0,-999.0,93,-99.99,,,0.23,weatherlink.com 1.10,2013-05-01 06:28:00,
2013-05-01 02:43:00,51.9,50.0,29.95,SSW,206,0.0,-999.0,93,-99.99,,,0.29,weatherlink.com 1.10,2013-05-01 06:43:00,
2013-05-01 02:58:00,51.8,50.0,29.93,SSW,206,0.0,-999.0,93,-99.99,,,0.33,weatherlink.com 1.10,2013-05-01 06:58:00,
2013-05-01 03:13:00,51.7,50.0,29.96,SSW,206,0.0,-999.0,93,-99.99,,,0.35,weatherlink.com 1.10,2013-05-01 07:13:00,
2013-05-01 03:28:00,51.4,50.0,29.98,SSW,206,0.0,-999.0,93,-99.99,,,0.38,weatherlink.com 1.10,2013-05-01 07:28:00,
2013-05-01 03:43:00,51.2,49.0,29.99,SSW,206,0.0,-999.0,93,-99.99,,,0.42,weatherlink.com 1.10,2013-05-01 07:43:00,
2013-05-01 03:58:00,51.0,49.0,29.98,SSW,206,0.0,-999.0,93,-99.99,,,0.43,weatherlink.com 1.10,2013-05-01 07:58:00,
2013-05-01 04:13:00,50.8,49.0,29.98,SSW,206,0.0,-999.0,94,-99.99,,,0.44,weatherlink.com 1.10,2013-05-01 08:13:00,
2013-05-01 04:28:00,50.6,49.0,29.98,SSW,206,0.0,-999.0,94,-99.99,,,0.45,weatherlink.com 1.10,2013-05-01 08:28:00,
2013-05-01 04:43:00,50.4,49.0,29.98,SSW,206,0.0,-999.0,94,-99.99,,,0.45,weatherlink.com 1.10,2013-05-01 08:43:00,
2013-05-01 04:58:00,50.2,49.0,29.98,SSW,206,0.0,-999.0,94,-99.99,,,0.45,weatherlink.com 1.10,2013-05-01 08:58:00,
2013-05-01 05:13:00,49.9,48.0,29.98,SSW,206,0.0,-999.0,94,-99.99,,,0.46,weatherlink.com 1.10,2013-05-01 09:13:00,
2013-05-01 05:28:00,49.7,48.0,29.99,SSW,206,0.0,-999.0,94,-99.99,,,0.46,weatherlink.com 1.10,2013-05-01 09:28:00,
2013-05-01 05:43:00,49.3,48.0,30.00,SSW,206,0.0,-999.0,94,-99.99,,,0.46,weatherlink.com 1.10,2013-05-01 09:43:00,
2013-05-01 05:58:00,49.4,48.0,29.99,SSW,206,0.0,-999.0,94,-99.99,,,0.47,weatherlink.com 1.10,2013-05-01 09:58:00,
2013-05-01 06:13:00,49.5,48.0,29.99,SSW,206,0.0,-999.0,95,-99.99,,,0.48,weatherlink.com 1.10,2013-05-01 10:13:00,
2013-05-01 06:28:00,49.1,48.0,30.02,SSW,206,0.0,-999.0,94,-99.99,,,0.48,weatherlink.com 1.10,2013-05-01 10:28:00,
2013-05-01 06:43:00,49.2,48.0,30.03,SSW,206,0.0,-999.0,95,-99.99,,,0.48,weatherlink.com 1.10,2013-05-01 10:43:00,
2013-05-01 06:58:00,48.7,47.0,30.04,SSW,206,0.0,-999.0,94,-99.99,,,0.48,weatherlink.com 1.10,2013-05-01 10:58:00,
2013-05-01 07:13:00,48.1,47.0,30.07,SSW,206,1.0,-999.0,94,-99.99,,,0.49,weatherlink.com 1.10,2013-05-01 11:13:00,
2013-05-01 07:28:00,47.6,46.0,30.07,SSW,206,0.0,-999.0,94,-99.99,,,0.49,weatherlink.com 1.10,2013-05-01 11:28:00,
2013-05-01 07:43:00,47.4,46.0,30.09,SSW,206,0.0,-999.0,94,-99.99,,,0.49,weatherlink.com 1.10,2013-05-01 11:43:00,
2013-05-01 07:58:00,47.7,46.0,30.10,SSW,206,0.0,-999.0,95,-99.99,,,0.49,weatherlink.com 1.10,2013-05-01 11:58:00,
2013-05-01 08:13:00,48.0,47.0,30.11,SSW,206,0.0,-999.0,95,-99.99,,,0.49,weatherlink.com 1.10,2013-05-01 12:13:00,
2013-05-01 08:28:00,48.5,47.0,30.11,SSW,206,0.0,-999.0,95,-99.99,,,0.49,weatherlink.com 1.10,2013-05-01 12:28:00,
2013-05-01 08:43:00,49.5,48.0,30.12,SSW,206,0.0,-999.0,95,-99.99,,,0.49,weatherlink.com 1.10,2013-05-01 12:43:00,
2013-05-01 08:58:00,49.9,49.0,30.12,SSW,206,0.0,-999.0,95,-99.99,,,0.49,weatherlink.com 1.10,2013-05-01 12:58:00,
2013-05-01 09:13:00,50.3,48.0,30.12,SSW,206,0.0,-999.0,93,-99.99,,,0.49,weatherlink.com 1.10,2013-05-01 13:13:00,
2013-05-01 09:28:00,51.2,48.0,30.13,SSW,206,0.0,-999.0,90,-99.99,,,0.49,weatherlink.com 1.10,2013-05-01 13:28:00,
2013-05-01 09:43:00,52.3,49.0,30.13,SSW,206,0.0,-999.0,88,-99.99,,,0.50,weatherlink.com 1.10,2013-05-01 13:43:00,
2013-05-01 09:58:00,52.2,48.0,30.14,SSW,206,0.0,-999.0,84,-99.99,,,0.50,weatherlink.com 1.10,2013-05-01 13:58:00,
2013-05-01 10:13:00,52.3,47.0,30.16,SSW,206,0.0,-999.0,82,-99.99,,,0.50,weatherlink.com 1.10,2013-05-01 14:13:00,
2013-05-01 10:28:00,52.2,47.0,30.17,SSW,206,0.0,-999.0,81,-99.99,,,0.50,weatherlink.com 1.10,2013-05-01 14:28:00,
2013-05-01 10:43:00,52.4,46.0,30.17,West,261,0.0,-999.0,80,-99.99,,,0.50,weatherlink.com 1.10,2013-05-01 14:43:00,
2013-05-01 10:58:00,52.6,45.0,30.18,NNW,341,0.0,-999.0,75,-99.99,,,0.50,weatherlink.com 1.10,2013-05-01 14:58:00,
2013-05-01 11:13:00,52.2,45.0,30.19,SW,219,1.0,-999.0,77,-99.99,,,0.50,weatherlink.com 1.10,2013-05-01 15:13:00,
2013-05-01 11:28:00,52.0,45.0,30.20,South,191,0.0,-999.0,77,-99.99,,,0.50,weatherlink.com 1.10,2013-05-01 15:28:00,
2013-05-01 11:43:00,52.2,45.0,30.20,SW,219,2.0,-999.0,75,-99.99,,,0.50,weatherlink.com 1.10,2013-05-01 15:43:00,
2013-05-01 11:58:00,54.1,44.0,30.20,ENE,66,3.0,-999.0,69,-99.99,,,0.50,weatherlink.com 1.10,2013-05-01 15:58:00,
2013-05-01 12:13:00,53.9,43.0,30.20,NE,53,2.0,-999.0,67,-99.99,,,0.50,weatherlink.com 1.10,2013-05-01 16:13:00,
2013-05-01 12:28:00,53.4,43.0,30.21,NE,45,4.0,-999.0,68,-99.99,,,0.50,weatherlink.com 1.10,2013-05-01 16:28:00,
2013-05-01 12:43:00,52.8,42.0,30.21,North,355,1.0,-999.0,68,-99.99,,,0.50,weatherlink.com 1.10,2013-05-01 16:43:00,
2013-05-01 12:58:00,52.4,42.0,30.21,North,351,4.0,-999.0,67,-99.99,,,0.50,weatherlink.com 1.10,2013-05-01 16:58:00,
2013-05-01 13:13:00,51.1,41.0,30.21,North,350,0.0,-999.0,69,-99.99,,,0.50,weatherlink.com 1.10,2013-05-01 17:13:00,
2013-05-01 13:28:00,50.1,41.0,30.21,NE,56,5.0,-999.0,71,-99.99,,,0.50,weatherlink.com 1.10,2013-05-01 17:28:00,
2013-05-01 13:43:00,50.3,41.0,30.22,NE,38,8.0,-999.0,71,-99.99,,,0.50,weatherlink.com 1.10,2013-05-01 17:43:00,
2013-05-01 13:58:00,48.5,41.0,30.22,NE,46,3.0,-999.0,74,-99.99,,,0.50,weatherlink.com 1.10,2013-05-01 17:58:00,
2013-05-01 14:13:00,48.3,41.0,30.24,NE,39,2.0,-999.0,76,-99.99,,,0.50,weatherlink.com 1.10,2013-05-01 18:13:00,
2013-05-01 14:28:00,47.1,40.0,30.25,NE,51,2.0,-999.0,77,-99.99,,,0.50,weatherlink.com 1.10,2013-05-01 18:28:00,
2013-05-01 14:43:00,47.7,41.0,30.26,NW,311,1.0,-999.0,77,-99.99,,,0.50,weatherlink.com 1.10,2013-05-01 18:43:00,
2013-05-01 14:58:00,47.1,40.0,30.27,NE,44,3.0,-999.0,75,-99.99,,,0.50,weatherlink.com 1.10,2013-05-01 18:58:00,
2013-05-01 15:13:00,47.2,40.0,30.28,NNE,24,2.0,-999.0,77,-99.99,,,0.50,weatherlink.com 1.10,2013-05-01 19:13:00,
2013-05-01 15:28:00,48.0,40.0,30.28,North,5,0.0,-999.0,74,-99.99,,,0.50,weatherlink.com 1.10,2013-05-01 19:28:00,
2013-05-01 15:43:00,47.7,40.0,30.29,NNE,24,3.0,-999.0,74,-99.99,,,0.50,weatherlink.com 1.10,2013-05-01 19:43:00,
2013-05-01 15:58:00,46.8,39.0,30.30,North,5,1.0,-999.0,73,-99.99,,,0.50,weatherlink.com 1.10,2013-05-01 19:58:00,
2013-05-01 16:13:00,46.3,38.0,30.30,NNE,25,3.0,-999.0,74,-99.99,,,0.50,weatherlink.com 1.10,2013-05-01 20:13:00,
2013-05-01 16:28:00,46.1,38.0,30.31,North,360,3.0,-999.0,72,-99.99,,,0.50,weatherlink.com 1.10,2013-05-01 20:28:00,
2013-05-01 16:43:00,45.2,37.0,30.32,NE,39,3.0,-999.0,72,-99.99,,,0.50,weatherlink.com 1.10,2013-05-01 20:43:00,
2013-05-01 16:58:00,44.4,37.0,30.32,NE,46,2.0,-999.0,75,-99.99,,,0.50,weatherlink.com 1.10,2013-05-01 20:58:00,
2013-05-01 17:13:00,44.4,37.0,30.32,NNE,31,3.0,-999.0,74,-99.99,,,0.50,weatherlink.com 1.10,2013-05-01 21:13:00,
2013-05-01 17:28:00,43.4,36.0,30.33,NE,34,1.0,-999.0,76,-99.99,,,0.50,weatherlink.com 1.10,2013-05-01 21:28:00,
2013-05-01 17:43:00,42.9,36.0,30.34,North,5,2.0,-999.0,76,-99.99,,,0.50,weatherlink.com 1.10,2013-05-01 21:43:00,
2013-05-01 17:58:00,42.2,36.0,30.34,NE,46,2.0,-999.0,78,-99.99,,,0.50,weatherlink.com 1.10,2013-05-01 21:58:00,
2013-05-01 18:13:00,42.5,36.0,30.34,North,10,2.0,-999.0,77,-99.99,,,0.50,weatherlink.com 1.10,2013-05-01 22:13:00,
2013-05-01 18:28:00,42.1,36.0,30.35,North,11,3.0,-999.0,78,-99.99,,,0.50,weatherlink.com 1.10,2013-05-01 22:28:00,
2013-05-01 18:43:00,42.2,36.0,30.35,North,5,0.0,-999.0,78,-99.99,,,0.50,weatherlink.com 1.10,2013-05-01 22:43:00,
2013-05-01 18:58:00,41.8,35.0,30.36,North,11,4.0,-999.0,78,-99.99,,,0.50,weatherlink.com 1.10,2013-05-01 22:58:00,
2013-05-01 19:13:00,41.5,35.0,30.36,ENE,70,2.0,-999.0,78,-99.99,,,0.50,weatherlink.com 1.10,2013-05-01 23:13:00,
2013-05-01 19:28:00,41.4,35.0,30.36,North,360,0.0,-999.0,78,-99.99,,,0.50,weatherlink.com 1.10,2013-05-01 23:28:00,
2013-05-01 19:43:00,41.8,35.0,30.37,NE,37,1.0,-999.0,77,-99.99,,,0.50,weatherlink.com 1.10,2013-05-01 23:43:00,
2013-05-01 19:58:00,41.7,35.0,30.38,NNE,14,2.0,-999.0,76,-99.99,,,0.50,weatherlink.com 1.10,2013-05-01 23:58:00,
2013-05-01 20:13:00,40.4,34.0,30.38,NE,46,2.0,-999.0,78,-99.99,,,0.50,weatherlink.com 1.10,2013-05-02 00:13:00,
2013-05-01 20:28:00,40.0,34.0,30.39,NE,52,1.0,-999.0,79,-99.99,,,0.50,weatherlink.com 1.10,2013-05-02 00:28:00,
2013-05-01 20:43:00,39.7,34.0,30.39,NNE,13,2.0,-999.0,79,-99.99,,,0.50,weatherlink.com 1.10,2013-05-02 00:43:00,
2013-05-01 20:58:00,39.1,33.0,30.40,ENE,64,0.0,-999.0,80,-99.99,,,0.50,weatherlink.com 1.10,2013-05-02 00:58:00,
2013-05-01 21:13:00,38.5,33.0,30.40,ENE,59,0.0,-999.0,82,-99.99,,,0.50,weatherlink.com 1.10,2013-05-02 01:13:00,
2013-05-01 21:28:00,38.2,33.0,30.41,NE,42,0.0,-999.0,82,-99.99,,,0.50,weatherlink.com 1.10,2013-05-02 01:28:00,
2013-05-01 21:43:00,38.0,33.0,30.42,NE,42,0.0,-999.0,83,-99.99,,,0.50,weatherlink.com 1.10,2013-05-02 01:43:00,
2013-05-01 21:58:00,38.0,32.0,30.43,NNE,21,0.0,-999.0,80,-99.99,,,0.50,weatherlink.com 1.10,2013-05-02 01:58:00,
2013-05-01 22:13:00,38.1,32.0,30.42,East,83,0.0,-999.0,80,-99.99,,,0.50,weatherlink.com 1.10,2013-05-02 02:13:00,
2013-05-01 22:28:00,38.0,32.0,30.42,NW,317,0.0,-999.0,79,-99.99,,,0.50,weatherlink.com 1.10,2013-05-02 02:28:00,
2013-05-01 22:43:00,37.9,32.0,30.43,North,355,1.0,-999.0,80,-99.99,,,0.50,weatherlink.com 1.10,2013-05-02 02:43:00,
2013-05-01 22:58:00,37.9,32.0,30.43,East,86,0.0,-999.0,80,-99.99,,,0.50,weatherlink.com 1.10,2013-05-02 02:58:00,
2013-05-01 23:13:00,37.9,32.0,30.43,NE,56,0.0,-999.0,80,-99.99,,,0.50,weatherlink.com 1.10,2013-05-02 03:13:00,
2013-05-01 23:28:00,37.9,32.0,30.42,NW,322,0.0,-999.0,80,-99.99,,,0.50,weatherlink.com 1.10,2013-05-02 03:28:00,
2013-05-01 23:43:00,38.3,33.0,30.41,NNE,17,2.0,-999.0,80,-99.99,,,0.50,weatherlink.com 1.10,2013-05-02 03:43:00,
2013-05-01 23:58:00,38.5,33.0,30.41,NNE,28,0.0,-999.0,80,-99.99,,,0.50,weatherlink.com 1.10,2013-05-02 03:58:00,